Weather History for KAKO - November, 2012

Change the Weather History Date:

Friday, November 2, 2012

  Actual Average Record
Temperature  
Mean Temperature 47 °F 44 °F  
Max Temperature 57 °F 57 °F 80 °F (2008)
Min Temperature 37 °F 31 °F -8 °F (1951)
Degree Days  
Heating Degree Days 18    
Month to date heating degree days 26  
Cooling Degree Days 0    
Month to date cooling degree days 0  
Moisture  
Dew Point 33 °F    
Average Humidity 57    
Maximum Humidity 76    
Minimum Humidity 38    
Precipitation  
Precipitation 0.00 in 0.02 in 1.52 in (1956)
Month to date precipitation 0.00 0.04  
Year to date precipitation 7.72 15.80  
Sea Level Pressure  
Sea Level Pressure 29.97 in    
Wind  
Wind Speed 12 mph (WNW)    
Max Wind Speed 26 mph    
Max Gust Speed 33 mph    
Visibility 10 miles    
Events      
T = Trace of Precipitation, MM = Missing Value Source: NWS Daily Summary

Daily Weather History Graph

Daily Weather History Graph

Search for Another Location

Airport or City:

Trip Planner

Search our weather history database for the weather conditions in past years. The results will help you decide how hot, cold, wet, or windy it might be!

Date:

Astronomy

Nov. 02, 2012 Rise Set
Actual Time 7:23 AM MDT 5:48 PM MDT
Civil Twilight 6:55 AM MDT 6:16 PM MDT
Nautical Twilight 6:23 AM MDT 6:48 PM MDT
Astronomical Twilight 5:51 AM MDT 7:20 PM MDT
Moon 8:37 PM MDT (11/2) 10:46 AM MDT (11/2)
Length of Visible Light 11h 20m
Length of Day
10h 24m
Waning Gibbous, 87% of the Moon is Illuminated
Nov 2
Waning Gibbous
Nov 6
Last Quarter
Nov 13
New
Nov 20
First Quarter
Nov 28
Full

Hourly Weather History & Observations

Time (MDT) Temp. Windchill Dew Point Humidity Pressure Visibility Wind Dir Wind Speed Gust Speed Precip Events Conditions
12:53 AM 48.9 °F - 36.0 °F 61% 29.80 in 10.0 mi WSW 13.8 mph - N/A   Clear
1:53 AM 48.9 °F - 35.1 °F 59% 29.79 in 10.0 mi West 11.5 mph - N/A   Clear
2:53 AM 46.9 °F - 36.0 °F 66% 29.81 in 10.0 mi West 15.0 mph - N/A   Clear
3:53 AM 46.9 °F - 36.0 °F 66% 29.81 in 10.0 mi West 12.7 mph - N/A   Clear
4:53 AM 45.0 °F 38.2 °F 37.0 °F 74% 29.86 in 10.0 mi West 15.0 mph - N/A   Clear
5:53 AM 46.0 °F 39.6 °F 35.1 °F 66% 29.89 in 10.0 mi WNW 15.0 mph - N/A   Clear
6:53 AM 48.0 °F - 32.0 °F 54% 29.90 in 10.0 mi WNW 11.5 mph - N/A   Clear
7:53 AM 46.9 °F - 32.0 °F 56% 29.91 in 10.0 mi WNW 12.7 mph - N/A   Clear
8:53 AM 48.0 °F - 33.1 °F 56% 29.95 in 10.0 mi WNW 10.4 mph - N/A   Clear
9:53 AM 53.1 °F - 30.9 °F 43% 29.97 in 10.0 mi WNW 9.2 mph - N/A   Clear
10:53 AM 54.0 °F - 28.9 °F 38% 30.00 in 10.0 mi North 19.6 mph 25.3 mph N/A   Clear
11:53 AM 52.0 °F - 30.9 °F 45% 30.01 in 10.0 mi North 16.1 mph - N/A   Clear
12:53 PM 53.1 °F - 32.0 °F 45% 30.00 in 10.0 mi North 16.1 mph - N/A   Clear
1:53 PM 55.0 °F - 33.1 °F 43% 29.99 in 10.0 mi NNE 13.8 mph - N/A   Clear
2:53 PM 55.9 °F - 32.0 °F 40% 29.98 in 10.0 mi North 12.7 mph - N/A   Clear
3:53 PM 55.0 °F - 32.0 °F 42% 29.99 in 10.0 mi NNE 12.7 mph - N/A   Clear
4:53 PM 53.1 °F - 32.0 °F 45% 30.01 in 10.0 mi ENE 8.1 mph - N/A   Clear
5:53 PM 50.0 °F - 33.1 °F 52% 30.04 in 10.0 mi ESE 4.6 mph - N/A   Clear
6:53 PM 46.0 °F 42.5 °F 33.1 °F 61% 30.08 in 10.0 mi SE 6.9 mph - N/A   Clear
7:53 PM 44.1 °F 40.8 °F 33.1 °F 65% 30.09 in 10.0 mi SSE 5.8 mph - N/A   Clear
8:53 PM 43.0 °F 40.3 °F 32.0 °F 65% 30.11 in 10.0 mi SSE 4.6 mph - N/A   Clear
9:53 PM 42.1 °F 38.4 °F 32.0 °F 67% 30.12 in 10.0 mi SSE 5.8 mph - N/A   Clear
11:53 PM 39.9 °F 36.7 °F 30.9 °F 70% 30.15 in 10.0 mi South 4.6 mph - N/A   Clear